Selawik, AK

3:19 AM AKDT on June 28, 2017 (GMT -0800)
Selawik

Weather History for PASK - March, 2013

Change the Weather History Date:

Monday, March 18, 2013

  Actual Average Record
Temperature  
Mean Temperature 8 °F -  
Max Temperature 19 °F 6 °F 42 °F (1998)
Min Temperature -2 °F -4 °F -31 °F (1997)
Degree Days  
Heating Degree Days 56    
Moisture  
Dew Point -5 °F    
Average Humidity 62    
Maximum Humidity 92    
Minimum Humidity 36    
Precipitation  
Precipitation 0.00 in - - ()
Sea Level Pressure  
Sea Level Pressure 30.28 in    
Wind  
Wind Speed 11 mph (WNW)    
Max Wind Speed 20 mph    
Max Gust Speed 17 mph    
Visibility 10 miles    
Events      
Averages and records for this station are not official NWS values.
T = Trace of Precipitation, MM = Missing Value Source: NWS Daily Summary

Daily Weather History Graph

Daily Weather History Graph

Search for Another Location

Airport or City:

Trip Planner

Search our weather history database for the weather conditions in past years. The results will help you decide how hot, cold, wet, or windy it might be!

Date:

Astronomy

Mar. 18, 2013 Rise Set
Actual Time 8:45 AM AKDT 8:51 PM AKDT
Civil Twilight 7:53 AM AKDT 9:44 PM AKDT
Nautical Twilight 6:49 AM AKDT 10:48 PM AKDT
Astronomical Twilight 5:34 AM AKDT 12:05 AM AKDT
Moon 10:08 AM AKDT (3/18) 5:45 AM AKDT (3/18)
Length of Visible Light 13h 50m
Length of Day
12h 05m
Waxing Crescent, 42% of the Moon is Illuminated
Mar 18
Waxing Crescent
Mar 19
First Quarter
Mar 27
Full
Apr 2
Last Quarter
Apr 10
New

Hourly Weather History & Observations

Time (AKDT) Temp. Windchill Dew Point Humidity Pressure Visibility Wind Dir Wind Speed Gust Speed Precip Events Conditions
12:16 AM -0.4 °F -17.6 °F -5.8 °F 78% 30.31 in 10.0 mi WSW 11.5 mph - N/A   Clear
12:36 AM -0.4 °F -16.7 °F -9.4 °F 66% 30.30 in 10.0 mi WSW 10.4 mph - N/A   Clear
12:56 AM -0.4 °F -16.7 °F -5.8 °F 78% 30.30 in 10.0 mi WSW 10.4 mph - N/A   Clear
1:16 AM -0.4 °F -17.6 °F -7.6 °F 72% 30.29 in 10.0 mi WSW 11.5 mph - N/A   Clear
1:36 AM -2.2 °F -18.9 °F -7.6 °F 78% 30.29 in 10.0 mi WSW 10.4 mph - N/A   Clear
1:56 AM -2.2 °F -20.7 °F -5.8 °F 85% 30.29 in 10.0 mi WSW 12.7 mph - N/A   Clear
2:16 AM -2.2 °F -18.9 °F -5.8 °F 85% 30.28 in 10.0 mi WSW 10.4 mph - N/A   Clear
2:36 AM -0.4 °F -17.6 °F -5.8 °F 78% 30.28 in 10.0 mi WSW 11.5 mph - N/A   Clear
2:56 AM -0.4 °F -17.6 °F -4.0 °F 85% 30.27 in 10.0 mi WSW 11.5 mph - N/A   Clear
3:16 AM -0.4 °F -16.7 °F -5.8 °F 78% 30.26 in 10.0 mi WSW 10.4 mph - N/A   Clear
3:36 AM -0.4 °F -17.6 °F -4.0 °F 85% 30.26 in 10.0 mi WSW 11.5 mph - N/A   Clear
3:56 AM 1.4 °F -16.1 °F -4.0 °F 78% 30.25 in 10.0 mi WSW 12.7 mph - N/A   Clear
4:16 AM -0.4 °F -17.6 °F -5.8 °F 78% 30.25 in 10.0 mi WSW 11.5 mph - N/A   Clear
4:36 AM -0.4 °F -17.6 °F -4.0 °F 85% 30.24 in 10.0 mi WSW 11.5 mph - N/A   Clear
4:56 AM -0.4 °F -17.6 °F -5.8 °F 78% 30.23 in 10.0 mi WSW 11.5 mph - N/A   Clear
5:16 AM -0.4 °F -17.6 °F -2.2 °F 92% 30.23 in 10.0 mi WSW 11.5 mph - N/A   Clear
5:36 AM -0.4 °F -16.7 °F -5.8 °F 78% 30.22 in 10.0 mi WSW 10.4 mph - N/A   Clear
5:56 AM 1.4 °F -14.5 °F -5.8 °F 72% 30.22 in 10.0 mi WSW 10.4 mph - N/A   Clear
6:16 AM -0.4 °F -17.6 °F -4.0 °F 85% 30.22 in 10.0 mi WSW 11.5 mph - N/A   Clear
6:36 AM -0.4 °F -17.6 °F -5.8 °F 78% 30.22 in 10.0 mi WSW 11.5 mph - N/A   Clear
6:56 AM -0.4 °F -15.7 °F -5.8 °F 78% 30.22 in 10.0 mi WSW 9.2 mph - N/A   Clear
7:16 AM -0.4 °F -15.7 °F -5.8 °F 78% 30.23 in 10.0 mi WSW 9.2 mph - N/A   Clear
7:36 AM -0.4 °F -16.7 °F -5.8 °F 78% 30.22 in 10.0 mi WSW 10.4 mph - N/A   Clear
7:56 AM -2.2 °F -18.9 °F -7.6 °F 78% 30.22 in 10.0 mi WSW 10.4 mph - N/A   Clear
8:16 AM -2.2 °F -18.9 °F -5.8 °F 85% 30.22 in 10.0 mi WSW 10.4 mph - N/A   Clear
8:36 AM -0.4 °F -15.7 °F -5.8 °F 78% 30.23 in 10.0 mi WSW 9.2 mph - N/A   Clear
8:56 AM -2.2 °F -18.9 °F -7.6 °F 78% 30.22 in 10.0 mi WSW 10.4 mph - N/A   Scattered Clouds
9:16 AM -0.4 °F -16.7 °F -4.0 °F 85% 30.22 in 10.0 mi WSW 10.4 mph - N/A   Partly Cloudy
9:36 AM -0.4 °F -15.7 °F -7.6 °F 72% 30.22 in 10.0 mi WSW 9.2 mph - N/A   Partly Cloudy
9:56 AM -0.4 °F -16.7 °F -5.8 °F 78% 30.23 in 10.0 mi WSW 10.4 mph - N/A   Scattered Clouds
10:16 AM -0.4 °F -16.7 °F -5.8 °F 78% 30.23 in 10.0 mi WSW 10.4 mph - N/A   Partly Cloudy
10:36 AM -0.4 °F -15.7 °F -5.8 °F 78% 30.23 in 10.0 mi WSW 9.2 mph - N/A   Clear
10:56 AM -0.4 °F -15.7 °F -5.8 °F 78% 30.23 in 10.0 mi WSW 9.2 mph - N/A   Clear
11:16 AM 1.4 °F -13.5 °F -5.8 °F 72% 30.24 in 10.0 mi SW 9.2 mph - N/A   Clear
11:36 AM 1.4 °F -13.5 °F -5.8 °F 72% 30.24 in 10.0 mi WSW 9.2 mph - N/A   Clear
11:56 AM 5.0 °F -9.1 °F -4.0 °F 66% 30.25 in 10.0 mi NNW 9.2 mph - N/A   Clear
12:16 PM 17.6 °F 8.2 °F -0.4 °F 45% 30.25 in 10.0 mi NNW 6.9 mph - N/A   Clear
12:36 PM 14.0 °F 0.5 °F -7.6 °F 38% 30.26 in 10.0 mi North 11.5 mph - N/A   Clear
12:56 PM 17.6 °F 3.2 °F -2.2 °F 42% 30.26 in 10.0 mi North 15.0 mph - N/A   Clear
1:16 PM 17.6 °F 5.7 °F -0.4 °F 45% 30.27 in 10.0 mi North 10.4 mph - N/A   Clear
1:36 PM 19.4 °F 6.6 °F -4.0 °F 36% 30.27 in 10.0 mi North 12.7 mph - N/A   Clear
1:56 PM 17.6 °F 5.0 °F -2.2 °F 42% 30.28 in 10.0 mi North 11.5 mph - N/A   Clear
2:16 PM 19.4 °F 5.5 °F -2.2 °F 39% 30.28 in 10.0 mi North 15.0 mph - N/A   Clear
2:36 PM 19.4 °F 7.2 °F -2.2 °F 39% 30.29 in 10.0 mi North 11.5 mph - N/A   Clear
2:56 PM 17.6 °F 6.4 °F -2.2 °F 42% 30.29 in 10.0 mi NNE 9.2 mph - N/A   Clear
3:16 PM 17.6 °F 8.2 °F -0.4 °F 45% 30.29 in 10.0 mi North 6.9 mph - N/A   Clear
3:36 PM 17.6 °F 10.7 °F -0.4 °F 45% 30.29 in 10.0 mi WNW 4.6 mph - N/A   Clear
3:56 PM 17.6 °F 7.3 °F -0.4 °F 45% 30.29 in 10.0 mi NNW 8.1 mph - N/A   Clear
4:16 PM 17.6 °F 7.3 °F 1.4 °F 49% 30.30 in 10.0 mi NW 8.1 mph - N/A   Clear
4:36 PM 17.6 °F 10.7 °F -0.4 °F 45% 30.30 in 10.0 mi WNW 4.6 mph - N/A   Clear
4:56 PM 17.6 °F - 1.4 °F 49% 30.30 in 10.0 mi Calm Calm - N/A   Clear
5:16 PM 17.6 °F 9.3 °F -2.2 °F 42% 30.30 in 10.0 mi NNE 5.8 mph - N/A   Clear
5:36 PM 15.8 °F 1.4 °F -2.2 °F 45% 30.29 in 10.0 mi North 13.8 mph - N/A   Clear
5:56 PM 15.8 °F 3.4 °F -2.2 °F 45% 30.30 in 10.0 mi North 10.4 mph - N/A   Clear
6:16 PM 15.8 °F 6.1 °F -0.4 °F 49% 30.31 in 10.0 mi NW 6.9 mph - N/A   Clear
6:36 PM 15.8 °F 6.1 °F -2.2 °F 45% 30.31 in 10.0 mi NW 6.9 mph - N/A   Clear
6:56 PM 15.8 °F 2.7 °F -4.0 °F 41% 30.31 in 10.0 mi NNW 11.5 mph - N/A   Clear
7:16 PM 14.0 °F 2.0 °F -4.0 °F 45% 30.32 in 10.0 mi North 9.2 mph - N/A   Clear
7:36 PM 14.0 °F 1.2 °F -5.8 °F 41% 30.31 in 10.0 mi North 10.4 mph - N/A   Clear
7:56 PM 12.2 °F 4.3 °F -4.0 °F 48% 30.32 in 10.0 mi North 4.6 mph - N/A   Clear
8:16 PM 10.4 °F -1.5 °F -5.8 °F 48% 30.33 in 10.0 mi NW 8.1 mph - N/A   Clear
8:36 PM 12.2 °F 1.7 °F -5.8 °F 45% 30.33 in 10.0 mi NNW 6.9 mph - N/A   Clear
8:56 PM 10.4 °F - -5.8 °F 48% 30.35 in 10.0 mi Calm Calm - N/A   Clear
9:16 PM 12.2 °F -2.5 °F -7.6 °F 41% 30.34 in 10.0 mi NNE 12.7 mph - N/A   Clear
9:36 PM 8.6 °F -7.7 °F -11.2 °F 40% 30.34 in 10.0 mi North 13.8 mph - N/A   Clear
9:56 PM 8.6 °F -7.7 °F -4.0 °F 57% 30.34 in 10.0 mi North 13.8 mph - N/A   Clear
10:16 PM 8.6 °F -9.5 °F -9.4 °F 44% 30.34 in 10.0 mi North 17.3 mph - N/A   Clear
10:36 PM 8.6 °F -9.5 °F -7.6 °F 48% 30.34 in 10.0 mi North 17.3 mph - N/A   Clear
10:56 PM 8.6 °F -7.7 °F -7.6 °F 48% 30.35 in 10.0 mi North 13.8 mph - N/A   Clear
11:16 PM 6.8 °F -7.8 °F -7.6 °F 52% 30.35 in 10.0 mi North 10.4 mph 17.3 mph N/A   Clear
11:36 PM 8.6 °F -10.5 °F -7.6 °F 48% 30.35 in 10.0 mi NNE 19.6 mph - N/A   Clear
11:56 PM 6.8 °F -8.6 °F -7.6 °F 52% 30.36 in 10.0 mi NNE 11.5 mph - N/A   Clear